{"data":{"norad_id":67065,"epoch":"2026-05-25T04:14:33.888768Z","epoch_age_seconds":59645,"freshness":"FRESH","line1":"1 67065U 25295G   26145.17678112 -.00000080  00000+0  94306-4 0  9992","line2":"2 67065  49.9976 107.7967 0000842 352.2550   7.8309 13.29326197 22445","mean_motion":13.29326197,"eccentricity":8.42e-5,"inclination_deg":49.9976,"raan_deg":107.7967,"arg_perigee_deg":352.255,"mean_anomaly_deg":7.8309,"bstar":9.4306e-5,"rev_number":2244,"period_min":108.32555645482,"perigee_km":1148.6720174794,"apogee_km":1149.9396388517,"semimajor_km":7527.4428281655,"source":"CELESTRAK","updated_at":"2026-05-25T13:38:06.702326Z"}}